EW6204 Weather Reports


time (UTC)temp
C
wind
direction
speed
KPH
gust
KPH
rain 1hr
cm
rain 24hr
cm
rain mn
cm
humidity
%
barometer
mb
20260507213116 17 5 4.8 16.1 0.00 0.00 0.00 63 1017.7
20260507211616 17 0 3.2 16.1 0.00 0.00 0.00 64 1017.8
20260507210105 17 0 0.0 20.9 0.00 0.00 0.00 62 1018.1
20260507204607 17 352 0.0 17.7 0.00 0.00 0.00 67 1018.3
20260507203110 16 341 6.4 16.1 0.00 0.00 0.00 68 1018.4
20260507201642 16 0 3.2 12.9 0.00 0.00 0.00 68 1018.5
20260507200107 16 13 3.2 12.9 0.00 0.00 0.00 67 1018.6
20260507194556 16 9 8.0 19.3 0.00 0.00 0.00 66 1018.7
20260507193104 16 0 0.0 9.7 0.00 0.00 0.00 69 1018.9
20260507191602 15 351 4.8 12.9 0.00 0.00 0.00 70 1019.2
20260507190116 15 0 6.4 14.5 0.00 0.00 0.00 69 1019.2
20260507184600 14 0 3.2 14.5 0.00 0.00 0.00 71 1019.4
20260507183101 14 349 3.2 12.9 0.00 0.00 0.00 72 1019.4
20260507181605 13 348 6.4 16.1 0.00 0.00 0.00 74 1019.6
20260507180058 13 0 4.8 12.9 0.00 0.00 0.00 72 1019.8
20260507174557 13 5 8.0 17.7 0.00 0.00 0.00 75 1019.8
20260507173102 13 0 8.0 14.5 0.00 0.00 0.00 73 1019.9
20260507171605 12 352 8.0 12.9 0.00 0.00 0.00 76 1020.0
20260507164605 12 352 8.0 17.7 0.00 0.00 0.00 77 1019.9
20260507163057 12 5 3.2 12.9 0.00 0.00 0.00 78 1019.8
20260507161556 12 0 4.8 12.9 0.00 0.00 0.00 78 1019.7
20260507160057 12 11 3.2 8.0 0.00 0.00 0.00 79 1019.9
20260507154559 12 5 3.2 9.7 0.00 0.00 0.00 79 1019.8
20260507153101 11 9 4.8 8.0 0.00 0.00 0.00 79 1020.1
20260507151558 11 17 4.8 9.7 0.00 0.00 0.00 80 1020.1
20260507144651 11 5 4.8 9.7 0.00 0.00 0.00 81 1020.0
20260507143105 11 352 1.6 9.7 0.00 0.00 0.00 81 1020.0
20260507141555 11 352 0.0 6.4 0.00 0.00 0.00 83 1019.9
20260507140057 11 0 0.0 4.8 0.00 0.00 0.00 83 1019.6
20260507134616 11 0 0.0 1.6 0.00 0.00 0.00 83 1019.6
20260507133133 11 0 0.0 0.0 0.00 0.00 0.00 83 1019.5
20260507131610 11 0 0.0 0.0 0.00 0.00 0.00 82 1019.7
20260507130109 11 0 0.0 0.0 0.00 0.00 0.00 83 1019.7
20260507124613 11 0 0.0 0.0 0.00 0.00 0.00 84 1019.7
20260507123056 11 0 0.0 4.8 0.00 0.00 0.00 83 1019.7
20260507121611 11 0 0.0 1.6 0.00 0.00 0.00 82 1019.8
20260507120109 11 0 1.6 9.7 0.00 0.00 0.00 81 1019.9
20260507114635 11 0 0.0 9.7 0.00 0.00 0.00 82 1020.1
20260507113056 11 331 1.6 4.8 0.00 0.00 0.00 83 1020.2
20260507111602 11 331 3.2 8.0 0.00 0.00 0.00 84 1020.2
20260507110059 11 0 0.0 4.8 0.00 0.00 0.00 83 1020.2
20260507104558 11 328 1.6 8.0 0.00 0.00 0.00 83 1020.2
20260507103110 11 321 1.6 8.0 0.00 0.00 0.00 84 1020.3
20260507101603 11 314 3.2 8.0 0.00 0.00 0.00 84 1020.4
20260507094604 11 0 0.0 0.0 0.00 0.00 0.00 86 1020.5
20260507093055 11 0 0.0 0.0 0.00 0.00 0.00 86 1020.6
20260507091557 11 0 0.0 0.0 0.00 0.00 0.00 86 1020.8
20260507090107 11 0 0.0 0.0 0.00 0.00 0.00 86 1020.9
20260507084600 11 0 0.0 0.0 0.00 0.00 0.00 86 1020.9
20260507083057 11 0 0.0 0.0 0.00 0.00 0.00 87 1020.8
20260507081558 11 0 0.0 0.0 0.00 0.00 0.00 86 1020.8
20260507080119 11 0 0.0 0.0 0.00 0.00 0.00 85 1020.8
20260507074608 11 0 0.0 0.0 0.00 0.00 0.00 85 1020.7
20260507073108 12 0 0.0 0.0 0.00 0.00 0.00 85 1020.7
20260507071559 12 0 0.0 0.0 0.00 0.00 0.00 85 1020.6
20260507070104 11 0 0.0 0.0 0.00 0.00 0.00 85 1020.7
20260507064600 12 0 0.0 0.0 0.00 0.00 0.00 84 1020.7
20260507063107 11 0 0.0 0.0 0.00 0.00 0.00 84 1020.7
20260507061554 11 0 0.0 0.0 0.00 0.00 0.00 85 1020.7
20260507060056 11 0 0.0 0.0 0.00 0.00 0.00 86 1020.6
20260507054603 11 0 0.0 0.0 0.00 0.00 0.00 84 1020.5
20260507053108 11 0 0.0 0.0 0.00 0.00 0.00 84 1020.7
20260507051557 12 0 0.0 0.0 0.00 0.00 0.00 82 1020.7
20260507050111 12 0 0.0 0.0 0.00 0.00 0.00 82 1020.7
20260507044556 12 0 0.0 0.0 0.00 0.00 0.00 82 1020.7
20260507043058 12 0 0.0 8.0 0.00 0.00 0.00 82 1020.6
20260507041559 12 0 0.0 3.2 0.00 0.00 0.00 81 1020.4
20260507040100 12 0 0.0 4.8 0.00 0.00 0.00 79 1020.3
20260507034557 13 0 0.0 6.4 0.00 0.00 0.00 78 1020.1
20260507033101 14 236 1.6 8.0 0.00 0.00 0.00 77 1019.8
20260507031556 15 0 0.0 4.8 0.00 0.00 0.00 75 1019.8
20260507030058 15 0 0.0 8.0 0.00 0.00 0.00 74 1019.5
20260507024605 16 231 1.6 14.5 0.00 0.00 0.00 72 1019.4
20260507023248 16 0 1.6 11.3 0.00 0.00 0.00 71 1019.4
20260507023112 16 0 1.6 11.3 0.00 0.00 0.00 71 1019.4
20260507021556 17 0 4.8 16.1 0.00 0.00 0.00 69 1019.3
20260507020114 18 0 1.6 14.5 0.00 0.00 0.00 68 1019.3
20260507014605 19 0 6.4 14.5 0.00 0.00 0.00 66 1019.2
20260507013059 20 222 3.2 12.9 0.00 0.00 0.00 67 1019.1
20260507011559 20 0 1.6 11.3 0.00 0.00 0.00 65 1019.0
20260507010104 20 352 3.2 9.7 0.00 0.00 0.00 65 1019.1
20260507004607 19 0 0.0 3.2 0.00 0.00 0.00 65 1019.1
20260507003100 20 0 0.0 4.8 0.00 0.00 0.00 64 1019.1
20260507001600 20 0 0.0 9.7 0.00 0.00 0.00 67 1019.1
20260506234559 19 360 8.0 14.5 0.00 0.00 0.00 67 1019.0
20260506233113 19 352 1.6 6.4 0.00 0.00 0.00 67 1019.2
20260506231611 19 5 3.2 9.7 0.00 0.00 0.00 70 1019.3
20260506230110 18 360 4.8 14.5 0.00 0.00 0.00 68 1019.3
20260506224556 19 0 0.0 14.5 0.00 0.00 0.00 69 1019.4
20260506223114 19 0 4.8 12.9 0.00 0.00 0.00 69 1019.6
20260506221612 18 352 6.4 14.5 0.00 0.00 0.00 71 1019.7
20260506220056 18 0 0.0 12.9 0.00 0.00 0.00 73 1020.0
20260506214558 17 0 0.0 12.9 0.00 0.00 0.00 75 1020.1